Marfa, TX

10:16 AM CDT on October 18, 2017 (GMT -0500)
Marfa Municipal

Weather History for KMRF - January, 2014

Change the Weather History Date:

Tuesday, January 14, 2014

  Actual Average Record
Temperature  
Mean Temperature 44 °F -  
Max Temperature 60 °F 57 °F 66 °F (2003)
Min Temperature 26 °F 25 °F 8 °F (1997)
Degree Days  
Heating Degree Days 21    
Moisture  
Dew Point 8 °F    
Average Humidity 25    
Maximum Humidity 59    
Minimum Humidity 12    
Precipitation  
Precipitation 0.00 in - - ()
Sea Level Pressure  
Sea Level Pressure 30.27 in    
Wind  
Wind Speed 11 mph (NNW)    
Max Wind Speed 24 mph    
Max Gust Speed 28 mph    
Visibility 10 miles    
Events      
Averages and records for this station are not official NWS values.
T = Trace of Precipitation, MM = Missing Value Source: NWS Daily Summary

Daily Weather History Graph

Daily Weather History Graph

Search for Another Location

Airport or City:

Trip Planner

Search our weather history database for the weather conditions in past years. The results will help you decide how hot, cold, wet, or windy it might be!

Date:

Astronomy

Jan. 14, 2014 Rise Set
Actual Time 7:53 AM CST 6:17 PM CST
Civil Twilight 7:27 AM CST 6:43 PM CST
Nautical Twilight 6:58 AM CST 7:12 PM CST
Astronomical Twilight 6:29 AM CST 7:41 PM CST
Moon 5:22 PM CST (1/14) 6:31 AM CST (1/14)
Length of Visible Light 11h 15m
Length of Day
10h 23m
Waxing Gibbous, 98% of the Moon is Illuminated
Jan 14
Waxing Gibbous
Jan 15
Full
Jan 23
Last Quarter
Jan 30
New
Feb 6
First Quarter

Hourly Weather History & Observations

Time (CST) Temp. Windchill Dew Point Humidity Pressure Visibility Wind Dir Wind Speed Gust Speed Precip Events Conditions
12:15 AM 39.2 °F 32.5 °F 1.4 °F 21% 30.24 in 10.0 mi West 10.4 mph - N/A   Clear
12:35 AM 35.6 °F 28.0 °F 3.2 °F 26% 30.23 in 10.0 mi West 10.4 mph - N/A   Clear
12:55 AM 30.2 °F 23.4 °F 1.4 °F 29% 30.23 in 10.0 mi NNW 6.9 mph - N/A   Clear
1:15 AM 32.0 °F 23.6 °F 5.0 °F 32% 30.22 in 10.0 mi WNW 10.4 mph - N/A   Clear
1:35 AM 30.2 °F 21.9 °F 3.2 °F 32% 30.21 in 10.0 mi WNW 9.2 mph - N/A   Clear
1:55 AM 32.0 °F 23.6 °F 3.2 °F 30% 30.20 in 10.0 mi WNW 10.4 mph - N/A   Clear
2:15 AM 30.2 °F 20.8 °F 3.2 °F 32% 30.19 in 10.0 mi West 11.5 mph - N/A   Clear
2:35 AM 30.2 °F 21.9 °F 3.2 °F 32% 30.19 in 10.0 mi West 9.2 mph - N/A   Clear
2:55 AM 35.6 °F 27.1 °F 6.8 °F 30% 30.18 in 10.0 mi West 12.7 mph - N/A   Clear
3:15 AM 30.2 °F 23.4 °F 3.2 °F 32% 30.19 in 10.0 mi ESE 6.9 mph - N/A   Clear
3:35 AM 35.6 °F - 3.2 °F 26% 30.19 in 10.0 mi Calm Calm - N/A   Clear
3:55 AM 42.8 °F 38.6 °F 6.8 °F 23% 30.19 in 10.0 mi West 6.9 mph - N/A   Clear
4:15 AM 42.8 °F - 3.2 °F 19% 30.19 in 10.0 mi Calm Calm - N/A   Clear
4:35 AM 41.0 °F 35.2 °F 1.4 °F 19% 30.19 in 10.0 mi West 9.2 mph - N/A   Clear
4:55 AM 44.6 °F 39.7 °F 3.2 °F 18% 30.19 in 10.0 mi West 9.2 mph - N/A   Clear
5:15 AM 42.8 °F 40.1 °F 3.2 °F 19% 30.19 in 10.0 mi WSW 4.6 mph - N/A   Clear
5:35 AM 41.0 °F 39.0 °F 1.4 °F 19% 30.18 in 10.0 mi South 3.5 mph - N/A   Clear
5:55 AM 39.2 °F - 1.4 °F 21% 30.18 in 10.0 mi Calm Calm - N/A   Clear
6:15 AM 44.6 °F 38.1 °F 3.2 °F 18% 30.18 in 10.0 mi West 13.8 mph 20.7 mph N/A   Clear
6:35 AM 44.6 °F 40.2 °F 3.2 °F 18% 30.19 in 10.0 mi West 8.1 mph 19.6 mph N/A   Clear
6:55 AM 39.2 °F 34.2 °F 1.4 °F 21% 30.20 in 10.0 mi SE 6.9 mph - N/A   Clear
7:15 AM 37.4 °F 33.8 °F 3.2 °F 24% 30.20 in 10.0 mi WSW 4.6 mph - N/A   Clear
7:35 AM 42.8 °F 37.0 °F 3.2 °F 19% 30.21 in 10.0 mi NW 10.4 mph 17.3 mph N/A   Clear
7:55 AM 41.0 °F 34.7 °F 3.2 °F 21% 30.21 in 10.0 mi West 10.4 mph - N/A   Clear
8:15 AM 33.8 °F 24.8 °F 3.2 °F 28% 30.21 in 10.0 mi West 12.7 mph - N/A   Clear
8:35 AM 39.2 °F 32.5 °F 6.8 °F 26% 30.22 in 10.0 mi North 10.4 mph - N/A   Clear
8:55 AM 44.6 °F 40.7 °F 6.8 °F 21% 30.23 in 10.0 mi North 6.9 mph - N/A   Clear
9:15 AM 46.4 °F 41.1 °F 6.8 °F 20% 30.24 in 10.0 mi West 11.5 mph - N/A   Clear
9:35 AM 48.2 °F - 6.8 °F 19% 30.25 in 10.0 mi WNW 17.3 mph 24.2 mph N/A   Clear
9:55 AM 51.8 °F - 6.8 °F 16% 30.27 in 10.0 mi WNW 16.1 mph 24.2 mph N/A   Clear
10:15 AM 51.8 °F - 8.6 °F 18% 30.28 in 10.0 mi WNW 19.6 mph 27.6 mph N/A   Clear
10:35 AM 53.6 °F - 8.6 °F 16% 30.28 in 10.0 mi WNW 20.7 mph 27.6 mph N/A   Clear
10:55 AM 53.6 °F - 8.6 °F 16% 30.27 in 10.0 mi West 24.2 mph - N/A   Clear
11:15 AM 55.4 °F - 8.6 °F 15% 30.28 in 10.0 mi WNW 23.0 mph - N/A   Clear
11:35 AM 55.4 °F - 8.6 °F 15% 30.28 in 10.0 mi West 17.3 mph - N/A   Clear
11:55 AM 57.2 °F - 8.6 °F 14% 30.27 in 10.0 mi West 18.4 mph 24.2 mph N/A   Clear
12:15 PM 59.0 °F - 8.6 °F 14% 30.27 in 10.0 mi NW 13.8 mph 18.4 mph N/A   Clear
12:35 PM 60.8 °F - 8.6 °F 13% 30.27 in 10.0 mi NW 13.8 mph 20.7 mph N/A   Clear
12:55 PM 60.8 °F - 6.8 °F 12% 30.25 in 10.0 mi North 15.0 mph 23.0 mph N/A   Clear
1:15 PM 60.8 °F - 6.8 °F 12% 30.25 in 10.0 mi NNW 13.8 mph 21.9 mph N/A   Clear
1:35 PM 60.8 °F - 8.6 °F 13% 30.24 in 10.0 mi NNW 11.5 mph 19.6 mph N/A   Clear
1:55 PM 60.8 °F - 6.8 °F 12% 30.24 in 10.0 mi North 10.4 mph 17.3 mph N/A   Clear
2:15 PM 60.8 °F - 8.6 °F 13% 30.24 in 10.0 mi NNW 9.2 mph 20.7 mph N/A   Clear
2:35 PM 60.8 °F - 8.6 °F 13% 30.23 in 10.0 mi North 8.1 mph 16.1 mph N/A   Clear
2:55 PM 60.8 °F - 8.6 °F 13% 30.24 in 10.0 mi North 13.8 mph 17.3 mph N/A   Clear
3:15 PM 57.2 °F - 10.4 °F 16% 30.24 in 10.0 mi NNE 15.0 mph 25.3 mph N/A   Clear
3:35 PM 57.2 °F - 10.4 °F 16% 30.25 in 10.0 mi NNE 20.7 mph 26.5 mph N/A   Clear
3:55 PM 55.4 °F - 10.4 °F 17% 30.27 in 10.0 mi NE 20.7 mph 26.5 mph N/A   Clear
4:15 PM 55.4 °F - 10.4 °F 17% 30.27 in 10.0 mi NE 20.7 mph 24.2 mph N/A   Clear
4:35 PM 55.4 °F - 10.4 °F 17% 30.28 in 10.0 mi NNE 19.6 mph 27.6 mph N/A   Clear
4:55 PM 55.4 °F - 10.4 °F 17% 30.28 in 10.0 mi NNE 20.7 mph - N/A   Clear
5:15 PM 53.6 °F - 10.4 °F 18% 30.29 in 10.0 mi NNE 19.6 mph - N/A   Clear
5:35 PM 51.8 °F - 10.4 °F 19% 30.29 in 10.0 mi NNE 19.6 mph - N/A   Clear
5:55 PM 51.8 °F - 12.2 °F 21% 30.31 in 10.0 mi NNE 15.0 mph - N/A   Clear
6:15 PM 48.2 °F - 12.2 °F 24% 30.33 in 10.0 mi NNE 11.5 mph - N/A   Clear
6:35 PM 46.4 °F 41.1 °F 12.2 °F 25% 30.34 in 10.0 mi NNE 11.5 mph - N/A   Clear
6:55 PM 44.6 °F 38.8 °F 12.2 °F 27% 30.35 in 10.0 mi NNE 11.5 mph - N/A   Clear
7:15 PM 44.6 °F 40.2 °F 12.2 °F 27% 30.36 in 10.0 mi NNE 8.1 mph - N/A   Clear
7:35 PM 42.8 °F 39.3 °F 12.2 °F 29% 30.37 in 10.0 mi NNE 5.8 mph - N/A   Clear
7:55 PM 39.2 °F 35.0 °F 12.2 °F 33% 30.38 in 10.0 mi NNE 5.8 mph - N/A   Clear
8:15 PM 35.6 °F 29.2 °F 12.2 °F 38% 30.39 in 10.0 mi NNW 8.1 mph - N/A   Clear
8:35 PM 35.6 °F 28.0 °F 12.2 °F 38% 30.39 in 10.0 mi NW 10.4 mph - N/A   Clear
8:55 PM 35.6 °F 29.2 °F 12.2 °F 38% 30.40 in 10.0 mi NNW 8.1 mph - N/A   Clear
9:15 PM 33.8 °F 27.7 °F 12.2 °F 41% 30.40 in 10.0 mi North 6.9 mph - N/A   Clear
9:35 PM 30.2 °F 23.4 °F 12.2 °F 47% 30.40 in 10.0 mi NE 6.9 mph - N/A   Clear
9:55 PM 30.2 °F 23.4 °F 12.2 °F 47% 30.41 in 10.0 mi NE 6.9 mph - N/A   Clear
10:15 PM 32.0 °F 25.6 °F 15.8 °F 51% 30.40 in 10.0 mi North 6.9 mph - N/A   Clear
10:35 PM 32.0 °F - 15.8 °F 51% 30.41 in 10.0 mi Calm Calm - N/A   Clear
10:55 PM 28.4 °F 19.1 °F 12.2 °F 51% 30.42 in 10.0 mi NNW 10.4 mph - N/A   Clear
11:15 PM 28.4 °F 24.6 °F 14.0 °F 55% 30.42 in 10.0 mi NNE 3.5 mph - N/A   Clear
11:35 PM 28.4 °F 21.2 °F 15.8 °F 59% 30.41 in 10.0 mi NNE 6.9 mph - N/A   Clear
11:55 PM 26.6 °F 18.2 °F 14.0 °F 59% 30.41 in 10.0 mi North 8.1 mph - N/A   Clear